map of LCA home
LCA - Airport
Location
City:  Larnaca, Cyprus
ICAO:LCLK
IATA:LCA

Details
Type:Airport (Aerodrome, Airfield)
Use:Public/Civil, International (customs port of entry)
Latitude:3452'30"N (34.875117)
Longitude:3337'29"E (33.624850)
Datum:WGS 1984
Elevation:8 ft (2 m)
Variation:4.99E (WMM2015 magnetic declination)
0.09 annual change
Runways:1
Longest:9776 × 148 ft (2980 × 45 m), paved

Time
Time Zone:UTC+2 (DST+3)
Local Time:

Weather
METAR:LCLK 220700Z 30003KT 9999 FEW025 SCT050 15/03 Q1016 NOSIG
TAF:LCLK 220530Z 2206/2306 32006KT 9999 FEW030 SCT050
BECMG 2207/2210 03010KT
BECMG 2214/2217 32008KT

Related Locations
Nearby:
Farthest:RVV: 11669 mi / 18780 km
Raivavae, Tubuai Islands, Austral Islands, PF

Find:

   beyond  
but within

Other Information
Maps:
NOTAMs:
Links:
Sources:

  
flag of Cyprus   

Sectional Chart

Flight Planning
at skyvector.com

Satellite Image

Google Maps Satellite view

 

Copyright © 2004-2017 Karl L. Swartz. All rights reserved.
The Great Circle Mapper name and logo are trademarks of the Great Circle Mapper.
All other trademarks mentioned herein belong to their respective owners.
Please see credits for attibutions and further copyright information.

  Follow gcmap on Facebook Follow gcmap on Twitter Follow gcmap on Google+ GCmap on LinkedIn

hCard Microformat

Geo Microformat